| time (UTC) | temp C | wind direction | speed KPH | gust KPH | rain 1hr cm | rain 24hr cm | rain mn cm | humidity % | barometer mb |
| 20260507075557 | 12 | 56 | 0.0 | 1.6 | 0.00 | 0.10 | 0.10 | 90 | 1013.7 |
| 20260507075054 | 12 | 162 | 0.0 | 1.6 | 0.00 | 0.10 | 0.10 | 92 | 1013.4 |
| 20260507074551 | 12 | 100 | 0.0 | 0.0 | 0.00 | 0.10 | 0.10 | 93 | 1013.4 |
| 20260507074049 | 12 | 66 | 0.0 | 0.0 | 0.00 | 0.10 | 0.10 | 91 | 1013.3 |
| 20260507073545 | 12 | 69 | 0.0 | 1.6 | 0.00 | 0.10 | 0.10 | 91 | 1013.5 |
| 20260507073042 | 12 | 7 | 0.0 | 1.6 | 0.00 | 0.10 | 0.10 | 92 | 1013.6 |
| 20260507072539 | 12 | 72 | 0.0 | 0.0 | 0.00 | 0.10 | 0.10 | 93 | 1013.3 |
| 20260507072036 | 12 | 67 | 0.0 | 0.0 | 0.00 | 0.10 | 0.10 | 93 | 1013.2 |
| 20260507071533 | 12 | 82 | 1.6 | 1.6 | 0.00 | 0.10 | 0.10 | 93 | 1012.9 |
| 20260507071030 | 12 | 75 | 1.6 | 1.6 | 0.00 | 0.10 | 0.10 | 93 | 1013.2 |
| 20260507070527 | 12 | 58 | 0.0 | 1.6 | 0.00 | 0.10 | 0.10 | 94 | 1013.1 |
| 20260507070024 | 12 | 88 | 1.6 | 1.6 | 0.00 | 0.10 | 0.10 | 94 | 1013.2 |
| 20260507065520 | 12 | 68 | 0.0 | 0.0 | 0.00 | 0.10 | 0.10 | 94 | 1013.5 |
| 20260507065018 | 12 | 52 | 1.6 | 1.6 | 0.00 | 0.10 | 0.10 | 94 | 1013.5 |
| 20260507064515 | 12 | 208 | 1.6 | 1.6 | 0.00 | 0.10 | 0.10 | 94 | 1013.2 |
| 20260507064014 | 12 | 72 | 0.0 | 0.0 | 0.18 | 0.10 | 0.10 | 94 | 1013.1 |
| 20260507063510 | 12 | 66 | 0.0 | 0.0 | 0.18 | 0.10 | 0.10 | 95 | 1013.1 |
| 20260507063008 | 12 | 59 | 1.6 | 1.6 | 0.00 | 0.08 | 0.08 | 95 | 1012.9 |
| 20260507062504 | 12 | 70 | 0.0 | 1.6 | 0.00 | 0.08 | 0.08 | 96 | 1013.0 |
| 20260507062002 | 12 | 76 | 0.0 | 0.0 | 0.00 | 0.08 | 0.08 | 95 | 1013.2 |
| 20260507061459 | 12 | 72 | 1.6 | 1.6 | 0.13 | 0.08 | 0.08 | 95 | 1013.3 |
| 20260507060957 | 12 | 156 | 0.0 | 0.0 | 0.13 | 0.08 | 0.08 | 95 | 1013.4 |
| 20260507060454 | 12 | 79 | 0.0 | 0.0 | 0.00 | 0.05 | 0.05 | 95 | 1013.1 |
| 20260507055951 | 12 | 72 | 0.0 | 0.0 | 0.00 | 0.05 | 0.05 | 95 | 1013.5 |
| 20260507055446 | 12 | 83 | 0.0 | 0.0 | 0.00 | 0.05 | 0.05 | 94 | 1013.2 |
| 20260507054943 | 13 | 65 | 0.0 | 1.6 | 0.00 | 0.05 | 0.05 | 94 | 1013.4 |
| 20260507054439 | 13 | 72 | 0.0 | 1.6 | 0.00 | 0.05 | 0.05 | 95 | 1013.5 |
| 20260507053936 | 13 | 73 | 0.0 | 1.6 | 0.18 | 0.05 | 0.05 | 94 | 1013.4 |
| 20260507053434 | 14 | 60 | 0.0 | 0.0 | 0.30 | 0.05 | 0.05 | 93 | 1013.5 |
| 20260507052932 | 15 | 86 | 0.0 | 1.6 | 0.13 | 0.03 | 0.03 | 91 | 1013.2 |
| 20260507052429 | 15 | 73 | 0.0 | 0.0 | 0.00 | 0.00 | 0.00 | 88 | 1013.5 |
| 20260507051926 | 15 | 65 | 1.6 | 1.6 | 0.00 | 0.00 | 0.00 | 85 | 1013.4 |
| 20260507051424 | 16 | 102 | 0.0 | 0.0 | 0.00 | 0.00 | 0.00 | 82 | 1013.5 |
| 20260507050921 | 16 | 199 | 1.6 | 3.2 | 0.00 | 0.00 | 0.00 | 80 | 1013.9 |
| 20260507050418 | 16 | 171 | 0.0 | 1.6 | 0.00 | 0.00 | 0.00 | 80 | 1013.6 |
| 20260507045914 | 16 | 198 | 1.6 | 1.6 | 0.00 | 0.00 | 0.00 | 80 | 1013.3 |
| 20260507045411 | 16 | 69 | 0.0 | 1.6 | 0.00 | 0.00 | 0.00 | 79 | 1012.9 |
| 20260507044908 | 16 | 108 | 0.0 | 0.0 | 0.00 | 0.00 | 0.00 | 78 | 1013.3 |
| 20260507044405 | 17 | 176 | 0.0 | 1.6 | 0.00 | 0.00 | 0.00 | 78 | 1013.1 |
| 20260507043901 | 17 | 78 | 0.0 | 1.6 | 0.00 | 0.00 | 0.00 | 77 | 1013.0 |
| 20260507043357 | 17 | 74 | 1.6 | 1.6 | 0.00 | 0.00 | 0.00 | 79 | 1013.0 |
| 20260507042854 | 17 | 251 | 1.6 | 3.2 | 0.00 | 0.00 | 0.00 | 83 | 1012.9 |
| 20260507042350 | 17 | 109 | 0.0 | 0.0 | 0.00 | 0.00 | 0.00 | 82 | 1012.8 |
| 20260507041846 | 17 | 77 | 0.0 | 0.0 | 0.00 | 0.00 | 0.00 | 82 | 1012.7 |
| 20260507041343 | 17 | 105 | 0.0 | 1.6 | 0.00 | 0.00 | 0.00 | 84 | 1012.6 |
| 20260507040841 | 17 | 106 | 0.0 | 0.0 | 0.00 | 0.00 | 0.00 | 84 | 1012.3 |
| 20260507040336 | 17 | 224 | 0.0 | 0.0 | 0.00 | 0.00 | 0.00 | 83 | 1012.1 |
| 20260507035833 | 17 | 88 | 0.0 | 0.0 | 0.00 | 0.30 | 0.30 | 82 | 1012.1 |
| 20260507035328 | 17 | 106 | 0.0 | 0.0 | 0.00 | 0.30 | 0.30 | 81 | 1012.3 |
| 20260507034826 | 17 | 109 | 0.0 | 0.0 | 0.00 | 0.30 | 0.30 | 81 | 1012.7 |
| 20260507034323 | 17 | 81 | 1.6 | 1.6 | 0.00 | 0.30 | 0.30 | 81 | 1012.5 |
| 20260507033821 | 17 | 108 | 0.0 | 0.0 | 0.00 | 0.30 | 0.30 | 81 | 1012.6 |
| 20260507033318 | 17 | 113 | 0.0 | 0.0 | 0.00 | 0.30 | 0.30 | 79 | 1012.6 |
| 20260507032815 | 18 | 121 | 0.0 | 0.0 | 0.00 | 0.30 | 0.30 | 79 | 1012.5 |
| 20260507032311 | 18 | 220 | 1.6 | 1.6 | 0.00 | 0.30 | 0.30 | 77 | 1012.5 |
| 20260507031808 | 18 | 228 | 3.2 | 3.2 | 0.00 | 0.30 | 0.30 | 75 | 1012.5 |
| 20260507031305 | 18 | 94 | 0.0 | 0.0 | 0.00 | 0.30 | 0.30 | 76 | 1012.4 |
| 20260507030801 | 18 | 154 | 0.0 | 1.6 | 0.00 | 0.30 | 0.30 | 76 | 1012.4 |
| 20260507030259 | 18 | 72 | 0.0 | 0.0 | 0.00 | 0.30 | 0.30 | 76 | 1012.2 |
| 20260507025756 | 19 | 225 | 1.6 | 3.2 | 0.00 | 0.30 | 0.30 | 81 | 1012.4 |
| 20260507025253 | 19 | 124 | 0.0 | 1.6 | 0.00 | 0.30 | 0.30 | 83 | 1012.3 |
| 20260507024751 | 19 | 113 | 0.0 | 0.0 | 0.00 | 0.30 | 0.30 | 84 | 1012.1 |
| 20260507024248 | 19 | 122 | 0.0 | 0.0 | 0.00 | 0.30 | 0.30 | 84 | 1011.9 |
| 20260507023743 | 19 | 135 | 0.0 | 0.0 | 0.00 | 0.30 | 0.30 | 85 | 1011.6 |
| 20260507023240 | 19 | 130 | 0.0 | 0.0 | 0.00 | 0.30 | 0.30 | 85 | 1011.8 |
| 20260507022738 | 19 | 122 | 0.0 | 0.0 | 0.00 | 0.30 | 0.30 | 85 | 1011.8 |
| 20260507022233 | 19 | 99 | 0.0 | 0.0 | 0.00 | 0.30 | 0.30 | 86 | 1011.9 |
| 20260507021730 | 19 | 143 | 0.0 | 0.0 | 0.00 | 0.30 | 0.30 | 86 | 1011.8 |
| 20260507021225 | 19 | 143 | 0.0 | 0.0 | 0.00 | 0.30 | 0.30 | 86 | 1011.8 |
| 20260507020724 | 19 | 144 | 0.0 | 1.6 | 0.00 | 0.30 | 0.30 | 86 | 1011.6 |
| 20260507020220 | 19 | 139 | 0.0 | 0.0 | 0.00 | 0.30 | 0.30 | 85 | 1011.4 |
| 20260507015718 | 20 | 135 | 0.0 | 0.0 | 0.00 | 0.30 | 0.30 | 85 | 1011.5 |
| 20260507015215 | 20 | 124 | 0.0 | 0.0 | 0.00 | 0.30 | 0.30 | 84 | 1011.5 |
| 20260507014712 | 20 | 111 | 0.0 | 0.0 | 0.00 | 0.30 | 0.30 | 84 | 1011.8 |
| 20260507014208 | 20 | 73 | 0.0 | 0.0 | 0.00 | 0.30 | 0.30 | 84 | 1011.7 |
| 20260507013705 | 20 | 81 | 0.0 | 0.0 | 0.00 | 0.30 | 0.30 | 84 | 1011.9 |
| 20260507013202 | 20 | 82 | 0.0 | 0.0 | 0.00 | 0.30 | 0.30 | 84 | 1012.2 |
| 20260507012700 | 20 | 82 | 0.0 | 0.0 | 0.00 | 0.30 | 0.30 | 84 | 1011.9 |
| 20260507012155 | 20 | 83 | 0.0 | 0.0 | 0.00 | 0.30 | 0.30 | 84 | 1012.0 |
| 20260507011653 | 20 | 94 | 0.0 | 0.0 | 0.00 | 0.30 | 0.30 | 84 | 1012.1 |
| 20260507011149 | 20 | 120 | 0.0 | 0.0 | 0.00 | 0.30 | 0.30 | 84 | 1012.0 |
| 20260507010644 | 20 | 118 | 0.0 | 0.0 | 0.00 | 0.30 | 0.30 | 84 | 1012.0 |
| 20260507010140 | 20 | 108 | 0.0 | 0.0 | 0.00 | 0.30 | 0.30 | 84 | 1012.0 |
| 20260507005638 | 20 | 116 | 0.0 | 0.0 | 0.00 | 0.30 | 0.30 | 84 | 1011.8 |
| 20260507005133 | 20 | 82 | 0.0 | 1.6 | 0.00 | 0.30 | 0.30 | 83 | 1011.8 |
| 20260507004630 | 20 | 136 | 0.0 | 0.0 | 0.00 | 0.30 | 0.30 | 83 | 1011.7 |
| 20260507004128 | 20 | 93 | 0.0 | 0.0 | 0.00 | 0.30 | 0.30 | 83 | 1011.4 |
| 20260507003624 | 20 | 136 | 0.0 | 0.0 | 0.00 | 0.30 | 0.30 | 83 | 1011.5 |
| 20260507003119 | 20 | 119 | 0.0 | 0.0 | 0.00 | 0.30 | 0.30 | 83 | 1011.5 |
| 20260507002616 | 20 | 80 | 0.0 | 1.6 | 0.00 | 0.30 | 0.30 | 83 | 1011.3 |
| 20260507002112 | 20 | 58 | 1.6 | 1.6 | 0.00 | 0.30 | 0.30 | 82 | 1011.5 |
| 20260507001609 | 20 | 88 | 0.0 | 0.0 | 0.00 | 0.30 | 0.30 | 82 | 1011.4 |
| 20260507001106 | 20 | 72 | 0.0 | 0.0 | 0.00 | 0.30 | 0.30 | 82 | 1011.6 |
| 20260507000602 | 20 | 65 | 0.0 | 1.6 | 0.00 | 0.30 | 0.30 | 81 | 1011.5 |
| 20260507000058 | 20 | 88 | 0.0 | 0.0 | 0.00 | 0.30 | 0.30 | 81 | 1011.3 |
| 20260506235555 | 20 | 123 | 0.0 | 1.6 | 0.00 | 0.30 | 0.30 | 81 | 1011.6 |
| 20260506235050 | 20 | 106 | 0.0 | 0.0 | 0.00 | 0.30 | 0.30 | 81 | 1011.6 |
| 20260506234548 | 20 | 95 | 0.0 | 1.6 | 0.00 | 0.30 | 0.30 | 81 | 1011.2 |
| 20260506234045 | 20 | 65 | 1.6 | 1.6 | 0.00 | 0.30 | 0.30 | 81 | 1011.2 |
| 20260506233542 | 20 | 78 | 0.0 | 0.0 | 0.00 | 0.30 | 0.30 | 81 | 1011.4 |
| 20260506233039 | 20 | 74 | 0.0 | 1.6 | 0.00 | 0.30 | 0.30 | 80 | 1011.1 |
| 20260506232535 | 20 | 93 | 0.0 | 0.0 | 0.00 | 0.30 | 0.30 | 80 | 1010.9 |
| 20260506232030 | 20 | 80 | 0.0 | 0.0 | 0.00 | 0.30 | 0.30 | 80 | 1011.0 |
| 20260506231528 | 20 | 134 | 0.0 | 0.0 | 0.00 | 0.30 | 0.30 | 80 | 1011.1 |
| 20260506231026 | 20 | 211 | 1.6 | 3.2 | 0.00 | 0.30 | 0.30 | 80 | 1011.1 |
| 20260506230522 | 20 | 64 | 1.6 | 1.6 | 0.00 | 0.30 | 0.30 | 80 | 1010.9 |
| 20260506230020 | 20 | 98 | 1.6 | 1.6 | 0.00 | 0.30 | 0.30 | 79 | 1010.6 |
| 20260506225516 | 21 | 135 | 0.0 | 1.6 | 0.00 | 0.30 | 0.30 | 79 | 1010.9 |
| 20260506225013 | 21 | 228 | 0.0 | 0.0 | 0.00 | 0.30 | 0.30 | 79 | 1010.9 |
| 20260506224510 | 21 | 223 | 1.6 | 1.6 | 0.00 | 0.30 | 0.30 | 78 | 1010.9 |
| 20260506224006 | 21 | 219 | 1.6 | 1.6 | 0.00 | 0.30 | 0.30 | 79 | 1010.8 |
| 20260506223502 | 21 | 271 | 0.0 | 1.6 | 0.00 | 0.30 | 0.30 | 78 | 1010.9 |
| 20260506222959 | 21 | 101 | 0.0 | 0.0 | 0.00 | 0.30 | 0.30 | 79 | 1010.9 |
| 20260506222456 | 21 | 44 | 1.6 | 3.2 | 0.00 | 0.30 | 0.30 | 78 | 1010.9 |
| 20260506221952 | 21 | 333 | 1.6 | 1.6 | 0.00 | 0.30 | 0.30 | 78 | 1011.0 |
| 20260506221449 | 21 | 62 | 1.6 | 3.2 | 0.00 | 0.30 | 0.30 | 78 | 1011.0 |
| 20260506220947 | 21 | 56 | 3.2 | 3.2 | 0.00 | 0.30 | 0.30 | 77 | 1011.1 |
| 20260506220442 | 21 | 1 | 3.2 | 3.2 | 0.00 | 0.30 | 0.30 | 77 | 1010.9 |
| 20260506215939 | 21 | 290 | 1.6 | 3.2 | 0.00 | 0.30 | 0.30 | 77 | 1010.9 |
| 20260506215435 | 21 | 70 | 1.6 | 1.6 | 0.00 | 0.30 | 0.30 | 77 | 1011.1 |
| 20260506214931 | 21 | 234 | 1.6 | 1.6 | 0.00 | 0.30 | 0.30 | 78 | 1011.2 |
| 20260506214428 | 21 | 59 | 1.6 | 3.2 | 0.00 | 0.30 | 0.30 | 77 | 1010.9 |
| 20260506213926 | 21 | 60 | 3.2 | 3.2 | 0.00 | 0.30 | 0.30 | 77 | 1010.8 |
| 20260506213423 | 21 | 64 | 1.6 | 1.6 | 0.00 | 0.30 | 0.30 | 77 | 1010.7 |
| 20260506212921 | 21 | 193 | 1.6 | 3.2 | 0.00 | 0.30 | 0.30 | 77 | 1010.6 |
| 20260506212416 | 21 | 172 | 0.0 | 0.0 | 0.00 | 0.30 | 0.30 | 77 | 1010.5 |
| 20260506211911 | 21 | 51 | 0.0 | 0.0 | 0.00 | 0.30 | 0.30 | 77 | 1010.7 |
| 20260506211408 | 21 | 81 | 0.0 | 0.0 | 0.00 | 0.30 | 0.30 | 77 | 1010.8 |
| 20260506210905 | 21 | 200 | 1.6 | 3.2 | 0.00 | 0.30 | 0.30 | 78 | 1010.7 |
| 20260506210401 | 21 | 77 | 0.0 | 0.0 | 0.00 | 0.30 | 0.30 | 77 | 1010.6 |
| 20260506205859 | 21 | 37 | 1.6 | 1.6 | 0.00 | 0.30 | 0.30 | 76 | 1010.5 |
| 20260506205355 | 21 | 220 | 1.6 | 1.6 | 0.00 | 0.30 | 0.30 | 77 | 1010.5 |
| 20260506204851 | 21 | 50 | 3.2 | 3.2 | 0.00 | 0.30 | 0.30 | 76 | 1010.5 |
| 20260506204349 | 21 | 224 | 1.6 | 1.6 | 0.00 | 0.30 | 0.30 | 75 | 1010.5 |
| 20260506203846 | 22 | 68 | 1.6 | 3.2 | 0.00 | 0.30 | 0.30 | 75 | 1010.4 |
| 20260506203343 | 22 | 128 | 3.2 | 4.8 | 0.00 | 0.30 | 0.30 | 75 | 1010.5 |
| 20260506202840 | 21 | 58 | 1.6 | 1.6 | 0.00 | 0.30 | 0.30 | 75 | 1010.5 |
| 20260506202337 | 21 | 33 | 3.2 | 3.2 | 0.00 | 0.30 | 0.30 | 75 | 1010.2 |
| 20260506201834 | 22 | 49 | 4.8 | 4.8 | 0.00 | 0.30 | 0.30 | 75 | 1010.4 |
| 20260506201331 | 22 | 277 | 4.8 | 4.8 | 0.00 | 0.30 | 0.30 | 74 | 1010.3 |
| 20260506200828 | 22 | 227 | 3.2 | 3.2 | 0.00 | 0.30 | 0.30 | 75 | 1010.4 |
| 20260506200324 | 22 | 246 | 3.2 | 3.2 | 0.00 | 0.30 | 0.30 | 75 | 1010.5 |
| 20260506195820 | 22 | 277 | 1.6 | 3.2 | 0.00 | 0.30 | 0.30 | 74 | 1010.3 |
| 20260506195318 | 22 | 280 | 1.6 | 3.2 | 0.00 | 0.30 | 0.30 | 73 | 1010.3 |
| 20260506194815 | 21 | 80 | 1.6 | 1.6 | 0.00 | 0.30 | 0.30 | 75 | 1010.4 |
| 20260506194311 | 21 | 182 | 1.6 | 1.6 | 0.00 | 0.30 | 0.30 | 75 | 1010.3 |
| 20260506193809 | 22 | 57 | 1.6 | 4.8 | 0.00 | 0.30 | 0.30 | 74 | 1010.5 |
| 20260506193305 | 22 | 198 | 1.6 | 3.2 | 0.00 | 0.30 | 0.30 | 74 | 1010.5 |
| 20260506192801 | 21 | 235 | 1.6 | 1.6 | 0.00 | 0.30 | 0.30 | 75 | 1010.5 |
| 20260506192258 | 21 | 357 | 1.6 | 3.2 | 0.00 | 0.30 | 0.30 | 75 | 1010.6 |
| 20260506191756 | 21 | 196 | 1.6 | 1.6 | 0.00 | 0.30 | 0.30 | 76 | 1010.6 |
| 20260506191252 | 21 | 289 | 1.6 | 3.2 | 0.00 | 0.30 | 0.30 | 76 | 1010.6 |
| 20260506190749 | 21 | 296 | 3.2 | 3.2 | 0.00 | 0.30 | 0.30 | 78 | 1010.6 |
| 20260506190245 | 21 | 65 | 1.6 | 1.6 | 0.00 | 0.30 | 0.30 | 77 | 1010.7 |
| 20260506185742 | 20 | 268 | 4.8 | 4.8 | 0.00 | 0.30 | 0.30 | 77 | 1010.9 |
| 20260506185239 | 20 | 176 | 1.6 | 1.6 | 0.00 | 0.30 | 0.30 | 78 | 1011.0 |
| 20260506184731 | 20 | 318 | 3.2 | 3.2 | 0.00 | 0.30 | 0.30 | 79 | 1011.2 |
| 20260506184228 | 20 | 49 | 1.6 | 1.6 | 0.00 | 0.30 | 0.30 | 79 | 1011.0 |
| 20260506183725 | 20 | 77 | 3.2 | 4.8 | 0.00 | 0.30 | 0.30 | 79 | 1010.8 |
| 20260506183221 | 20 | 83 | 6.4 | 9.7 | 0.00 | 0.30 | 0.30 | 79 | 1011.3 |
| 20260506182718 | 20 | 285 | 3.2 | 4.8 | 0.00 | 0.30 | 0.30 | 80 | 1011.1 |
| 20260506182215 | 20 | 218 | 3.2 | 3.2 | 0.00 | 0.30 | 0.30 | 80 | 1011.2 |
| 20260506181713 | 20 | 78 | 1.6 | 1.6 | 0.00 | 0.30 | 0.30 | 81 | 1011.3 |
| 20260506181211 | 20 | 301 | 1.6 | 1.6 | 0.00 | 0.30 | 0.30 | 80 | 1011.4 |
| 20260506180707 | 20 | 3 | 3.2 | 3.2 | 0.00 | 0.30 | 0.30 | 80 | 1011.5 |
| 20260506180202 | 20 | 254 | 3.2 | 3.2 | 0.00 | 0.30 | 0.30 | 81 | 1011.4 |
| 20260506175659 | 20 | 56 | 1.6 | 3.2 | 0.00 | 0.30 | 0.30 | 80 | 1011.6 |
| 20260506175157 | 20 | 132 | 1.6 | 1.6 | 0.00 | 0.30 | 0.30 | 84 | 1011.5 |
| 20260506174655 | 19 | 241 | 3.2 | 3.2 | 0.00 | 0.30 | 0.30 | 82 | 1011.5 |
| 20260506174151 | 19 | 290 | 6.4 | 9.7 | 0.00 | 0.30 | 0.30 | 83 | 1011.5 |
| 20260506173649 | 19 | 254 | 3.2 | 4.8 | 0.00 | 0.30 | 0.30 | 84 | 1011.4 |
| 20260506173145 | 19 | 249 | 1.6 | 1.6 | 0.00 | 0.30 | 0.30 | 84 | 1011.5 |
| 20260506172642 | 18 | 48 | 3.2 | 3.2 | 0.00 | 0.30 | 0.30 | 85 | 1011.6 |
| 20260506172139 | 18 | 271 | 3.2 | 4.8 | 0.00 | 0.30 | 0.30 | 86 | 1011.6 |
| 20260506171631 | 18 | 64 | 4.8 | 4.8 | 0.00 | 0.30 | 0.30 | 87 | 1011.5 |
| 20260506171128 | 18 | 318 | 4.8 | 4.8 | 0.00 | 0.30 | 0.30 | 86 | 1011.5 |
| 20260506170625 | 18 | 171 | 0.0 | 1.6 | 0.00 | 0.30 | 0.30 | 88 | 1011.6 |
| 20260506170117 | 18 | 78 | 1.6 | 3.2 | 0.00 | 0.30 | 0.30 | 89 | 1011.7 |
| 20260506165615 | 18 | 288 | 1.6 | 3.2 | 0.00 | 0.30 | 0.30 | 89 | 1011.8 |
| 20260506165111 | 17 | 45 | 6.4 | 11.3 | 0.00 | 0.30 | 0.30 | 89 | 1012.1 |
| 20260506164609 | 17 | 308 | 1.6 | 1.6 | 0.00 | 0.30 | 0.30 | 90 | 1011.9 |
| 20260506164106 | 17 | 22 | 3.2 | 4.8 | 0.00 | 0.30 | 0.30 | 91 | 1012.0 |
| 20260506163602 | 17 | 50 | 3.2 | 3.2 | 0.00 | 0.30 | 0.30 | 91 | 1012.0 |
| 20260506163057 | 17 | 35 | 6.4 | 8.0 | 0.00 | 0.30 | 0.30 | 92 | 1011.7 |
| 20260506162554 | 17 | 107 | 1.6 | 3.2 | 0.00 | 0.30 | 0.30 | 93 | 1011.9 |
| 20260506162051 | 17 | 35 | 1.6 | 3.2 | 0.00 | 0.30 | 0.30 | 93 | 1011.9 |
| 20260506161549 | 17 | 68 | 3.2 | 3.2 | 0.00 | 0.30 | 0.30 | 93 | 1012.0 |
| 20260506161045 | 17 | 319 | 1.6 | 3.2 | 0.00 | 0.30 | 0.30 | 94 | 1012.0 |
| 20260506160543 | 16 | 350 | 4.8 | 4.8 | 0.00 | 0.30 | 0.30 | 94 | 1012.3 |
| 20260506160039 | 16 | 90 | 1.6 | 1.6 | 0.00 | 0.30 | 0.30 | 94 | 1012.2 |
| 20260506155539 | 16 | 66 | 1.6 | 1.6 | 0.00 | 0.30 | 0.30 | 94 | 1012.4 |
| 20260506153715 | 16 | 53 | 1.6 | 1.6 | 0.00 | 0.30 | 0.30 | 95 | 1011.9 |
| 20260506153213 | 16 | 63 | 1.6 | 3.2 | 0.00 | 0.30 | 0.30 | 95 | 1012.1 |
| 20260506152709 | 16 | 74 | 1.6 | 3.2 | 0.00 | 0.30 | 0.30 | 95 | 1012.6 |
| 20260506152207 | 16 | 209 | 3.2 | 4.8 | 0.18 | 0.30 | 0.30 | 95 | 1012.5 |
| 20260506151706 | 16 | 70 | 1.6 | 3.2 | 0.18 | 0.30 | 0.30 | 95 | 1012.7 |
| 20260506151202 | 16 | 65 | 0.0 | 3.2 | 0.13 | 0.28 | 0.28 | 95 | 1012.9 |
| 20260506150658 | 16 | 54 | 3.2 | 4.8 | 0.48 | 0.28 | 0.28 | 95 | 1013.0 |
| 20260506150156 | 16 | 71 | 1.6 | 3.2 | 0.48 | 0.23 | 0.23 | 94 | 1012.9 |
| 20260506145652 | 16 | 60 | 1.6 | 1.6 | 0.61 | 0.20 | 0.20 | 94 | 1012.9 |
| 20260506145149 | 16 | 63 | 1.6 | 1.6 | 0.61 | 0.15 | 0.15 | 93 | 1012.9 |
| 20260506144647 | 16 | 272 | 1.6 | 1.6 | 0.30 | 0.10 | 0.10 | 92 | 1013.1 |
| 20260506144143 | 16 | 76 | 0.0 | 0.0 | 0.00 | 0.05 | 0.05 | 91 | 1012.9 |
| 20260506143641 | 16 | 339 | 3.2 | 3.2 | 0.13 | 0.05 | 0.05 | 91 | 1012.8 |
| 20260506143139 | 16 | 60 | 1.6 | 1.6 | 0.13 | 0.05 | 0.05 | 91 | 1012.9 |
| 20260506142637 | 16 | 72 | 0.0 | 1.6 | 0.00 | 0.03 | 0.03 | 91 | 1013.0 |
| 20260506142135 | 16 | 64 | 1.6 | 3.2 | 0.18 | 0.03 | 0.03 | 90 | 1012.9 |
| 20260506141632 | 17 | 74 | 0.0 | 1.6 | 0.18 | 0.03 | 0.03 | 89 | 1012.9 |
| 20260506141130 | 17 | 63 | 0.0 | 1.6 | 0.00 | 0.00 | 0.00 | 87 | 1013.0 |
| 20260506140628 | 17 | 27 | 3.2 | 3.2 | 0.00 | 0.00 | 0.00 | 86 | 1012.9 |
| 20260506140125 | 17 | 168 | 0.0 | 1.6 | 0.00 | 0.00 | 0.00 | 84 | 1013.2 |
| 20260506135622 | 17 | 149 | 0.0 | 1.6 | 0.00 | 0.00 | 0.00 | 84 | 1013.2 |
| 20260506135118 | 17 | 29 | 1.6 | 3.2 | 0.00 | 0.00 | 0.00 | 82 | 1013.4 |
| 20260506134614 | 18 | 61 | 0.0 | 1.6 | 0.00 | 0.00 | 0.00 | 81 | 1013.4 |
| 20260506134110 | 18 | 19 | 3.2 | 4.8 | 0.00 | 0.00 | 0.00 | 79 | 1013.4 |
| 20260506133608 | 18 | 224 | 0.0 | 1.6 | 0.00 | 0.00 | 0.00 | 79 | 1013.3 |
| 20260506133105 | 18 | 170 | 0.0 | 1.6 | 0.00 | 0.00 | 0.00 | 79 | 1013.4 |
| 20260506132602 | 18 | 85 | 1.6 | 1.6 | 0.00 | 0.00 | 0.00 | 78 | 1013.0 |
| 20260506132059 | 18 | 64 | 1.6 | 1.6 | 0.00 | 0.00 | 0.00 | 78 | 1013.0 |
| 20260506131556 | 18 | 242 | 3.2 | 3.2 | 0.00 | 0.00 | 0.00 | 77 | 1012.8 |
| 20260506131052 | 18 | 116 | 1.6 | 3.2 | 0.00 | 0.00 | 0.00 | 77 | 1012.8 |
| 20260506130549 | 18 | 55 | 3.2 | 3.2 | 0.00 | 0.00 | 0.00 | 77 | 1012.7 |
| 20260506130047 | 18 | 266 | 4.8 | 4.8 | 0.00 | 0.00 | 0.00 | 76 | 1012.7 |
| 20260506125545 | 18 | 350 | 3.2 | 4.8 | 0.00 | 0.00 | 0.00 | 76 | 1012.7 |
| 20260506125042 | 18 | 69 | 0.0 | 0.0 | 0.00 | 0.00 | 0.00 | 77 | 1012.6 |
| 20260506124540 | 18 | 64 | 0.0 | 1.6 | 0.00 | 0.00 | 0.00 | 77 | 1012.8 |
| 20260506124038 | 18 | 57 | 0.0 | 0.0 | 0.00 | 0.00 | 0.00 | 77 | 1012.9 |
| 20260506123535 | 18 | 49 | 1.6 | 1.6 | 0.00 | 0.00 | 0.00 | 77 | 1012.8 |
| 20260506123033 | 18 | 65 | 3.2 | 3.2 | 0.00 | 0.00 | 0.00 | 77 | 1013.1 |
| 20260506122529 | 18 | 65 | 0.0 | 1.6 | 0.00 | 0.00 | 0.00 | 77 | 1013.1 |
| 20260506122028 | 18 | 155 | 0.0 | 1.6 | 0.00 | 0.00 | 0.00 | 78 | 1013.2 |
| 20260506121525 | 18 | 285 | 4.8 | 4.8 | 0.00 | 0.00 | 0.00 | 77 | 1013.3 |
| 20260506121021 | 18 | 7 | 1.6 | 1.6 | 0.00 | 0.00 | 0.00 | 76 | 1013.1 |
| 20260506120520 | 18 | 253 | 3.2 | 8.0 | 0.00 | 0.00 | 0.00 | 75 | 1013.1 |
| 20260506120017 | 18 | 277 | 3.2 | 4.8 | 0.00 | 0.00 | 0.00 | 75 | 1012.9 |
| 20260506115514 | 18 | 53 | 1.6 | 1.6 | 0.00 | 0.00 | 0.00 | 75 | 1013.1 |
| 20260506115013 | 18 | 70 | 1.6 | 1.6 | 0.00 | 0.00 | 0.00 | 75 | 1013.0 |
| 20260506114509 | 18 | 63 | 3.2 | 4.8 | 0.00 | 0.00 | 0.00 | 75 | 1012.9 |
| 20260506114008 | 18 | 319 | 3.2 | 3.2 | 0.00 | 0.00 | 0.00 | 75 | 1012.7 |
| 20260506113505 | 18 | 80 | 1.6 | 3.2 | 0.00 | 0.00 | 0.00 | 75 | 1012.7 |
| 20260506113002 | 18 | 77 | 1.6 | 1.6 | 0.00 | 0.00 | 0.00 | 75 | 1012.5 |
| 20260506112459 | 18 | 66 | 0.0 | 1.6 | 0.00 | 0.00 | 0.00 | 75 | 1012.7 |
| 20260506111956 | 18 | 37 | 0.0 | 0.0 | 0.00 | 0.00 | 0.00 | 76 | 1012.7 |
| 20260506111454 | 18 | 43 | 0.0 | 1.6 | 0.00 | 0.00 | 0.00 | 76 | 1012.6 |
| 20260506110951 | 18 | 3 | 4.8 | 9.7 | 0.00 | 0.00 | 0.00 | 76 | 1012.4 |
| 20260506110449 | 18 | 44 | 1.6 | 3.2 | 0.00 | 0.00 | 0.00 | 77 | 1012.4 |
| 20260506105945 | 18 | 270 | 1.6 | 3.2 | 0.00 | 0.00 | 0.00 | 76 | 1012.2 |
| 20260506105442 | 18 | 64 | 3.2 | 3.2 | 0.00 | 0.00 | 0.00 | 76 | 1012.5 |
| 20260506104939 | 18 | 42 | 3.2 | 3.2 | 0.00 | 0.00 | 0.00 | 76 | 1012.2 |
| 20260506104437 | 18 | 33 | 1.6 | 3.2 | 0.00 | 0.00 | 0.00 | 76 | 1012.4 |
| 20260506103935 | 18 | 58 | 0.0 | 1.6 | 0.00 | 0.00 | 0.00 | 76 | 1012.3 |
| 20260506103432 | 18 | 351 | 1.6 | 3.2 | 0.00 | 0.00 | 0.00 | 76 | 1012.3 |
| 20260506102929 | 18 | 27 | 6.4 | 9.7 | 0.00 | 0.00 | 0.00 | 76 | 1012.2 |
| 20260506102427 | 18 | 31 | 4.8 | 4.8 | 0.00 | 0.00 | 0.00 | 76 | 1012.4 |
| 20260506101924 | 18 | 114 | 1.6 | 3.2 | 0.00 | 0.00 | 0.00 | 76 | 1012.3 |
| 20260506101420 | 18 | 88 | 4.8 | 8.0 | 0.00 | 0.00 | 0.00 | 76 | 1012.1 |
| 20260506100918 | 18 | 6 | 4.8 | 4.8 | 0.00 | 0.00 | 0.00 | 76 | 1012.2 |
| 20260506100416 | 18 | 66 | 1.6 | 1.6 | 0.00 | 0.00 | 0.00 | 76 | 1012.2 |
| 20260506095914 | 18 | 53 | 1.6 | 1.6 | 0.00 | 0.00 | 0.00 | 76 | 1012.4 |
| 20260506095412 | 18 | 80 | 0.0 | 0.0 | 0.00 | 0.00 | 0.00 | 76 | 1012.3 |
| 20260506094908 | 18 | 57 | 1.6 | 1.6 | 0.00 | 0.00 | 0.00 | 76 | 1012.4 |
| 20260506094407 | 18 | 76 | 0.0 | 1.6 | 0.00 | 0.00 | 0.00 | 76 | 1012.4 |
| 20260506093904 | 18 | 11 | 3.2 | 4.8 | 0.00 | 0.00 | 0.00 | 75 | 1012.3 |
| 20260506093402 | 18 | 170 | 1.6 | 3.2 | 0.00 | 0.00 | 0.00 | 75 | 1012.3 |
| 20260506092859 | 18 | 50 | 1.6 | 1.6 | 0.00 | 0.00 | 0.00 | 75 | 1012.2 |
| 20260506092357 | 18 | 65 | 1.6 | 1.6 | 0.00 | 0.00 | 0.00 | 75 | 1012.4 |
| 20260506091853 | 18 | 34 | 1.6 | 1.6 | 0.00 | 0.00 | 0.00 | 75 | 1012.4 |
| 20260506091352 | 18 | 22 | 4.8 | 4.8 | 0.00 | 0.00 | 0.00 | 75 | 1012.4 |
| 20260506090848 | 18 | 70 | 0.0 | 0.0 | 0.00 | 0.00 | 0.00 | 74 | 1012.3 |
| 20260506090346 | 18 | 85 | 0.0 | 1.6 | 0.00 | 0.00 | 0.00 | 74 | 1012.5 |
| 20260506085842 | 18 | 34 | 4.8 | 8.0 | 0.00 | 0.00 | 0.00 | 74 | 1012.7 |
| 20260506085339 | 19 | 66 | 3.2 | 3.2 | 0.00 | 0.00 | 0.00 | 73 | 1012.5 |
| 20260506084835 | 19 | 52 | 6.4 | 9.7 | 0.00 | 0.00 | 0.00 | 73 | 1012.4 |
| 20260506084332 | 19 | 80 | 3.2 | 4.8 | 0.00 | 0.00 | 0.00 | 73 | 1012.6 |
| 20260506083829 | 19 | 68 | 3.2 | 4.8 | 0.00 | 0.00 | 0.00 | 72 | 1012.5 |
| 20260506083326 | 19 | 60 | 3.2 | 3.2 | 0.00 | 0.00 | 0.00 | 72 | 1012.4 |
| 20260506082823 | 19 | 67 | 0.0 | 1.6 | 0.00 | 0.00 | 0.00 | 72 | 1012.3 |
| 20260506082320 | 19 | 49 | 1.6 | 3.2 | 0.00 | 0.00 | 0.00 | 71 | 1012.4 |
| 20260506081816 | 20 | 27 | 3.2 | 3.2 | 0.00 | 0.00 | 0.00 | 71 | 1012.4 |
| 20260506081314 | 20 | 30 | 3.2 | 3.2 | 0.00 | 0.00 | 0.00 | 71 | 1012.3 |
| 20260506080812 | 20 | 73 | 4.8 | 4.8 | 0.00 | 0.00 | 0.00 | 71 | 1012.4 |
| 20260506080308 | 20 | 150 | 0.0 | 1.6 | 0.00 | 0.00 | 0.00 | 71 | 1012.4 |